Starlink 33545

operational
NORAD ID: 62101 Int'l Des: 2024-220 Owner: SPXS Country: US Constellation: starlink
LEOCIRCULAR

关于 Starlink 33545

正在加载描述...

实时位置

正在加载3D地球...

即将过境

高度历史

Altitude vs Time

uPlot chart will show altitude changes over time

两行轨道根数

1 62101U 24220P 25350.25348821 .00030956 00000-0 11286-2 0 9991
2 62101 43.0007 316.4962 0001735 279.0425 81.0231 15.27612992 60265
Epoch: Dec 16, 2025 • Age: 29 hours

当前状态

高度 483.2 km
速度 7.63 km/s
星下点 22.22°N, 146.97°W
发射日期 Nov 25, 2024
运行时间 1 years
类型 internet

技术详情

分类 Payload
质量 530.00 kg
干质量 500.00 kg
总质量 530.00 kg
长度 0.30 m
直径 4.10 m
跨度 29.00 m
形状 Box + pan
制造商 SPXS
平台类型 Starlink V2MO
阶段状态 In Orbit
所有者/国家 SPXS/US

大型星座

Loading constellations...